Location: Bittkow
(50.3000°N, 19.0000°E)
Time: 13:13:14
(UTC+00:00)

Cosmos 1933 Rocket - Pass Details

Date: 19 September 2020
Orbit: 605 x 631 km, 82.5° (Epoch: 22 October)

Event Time Altitude Azimuth Distance (km) Brightness Sun altitude
Rises 01:48:21 0° 351° (N) 2,897 7.4 -24.3°
Reaches altitude 10° 01:50:37 10° 355° (N) 1,983 6.5 -24.0°
Maximum altitude 01:54:58 66° 78° (ENE) 672 3.8 -23.5°
Enters shadow 01:57:14 27° 153° (SSE) 1,178 4.9 -23.2°
